Date String (YYYY-MM-DD hh:mm:ss) UTC,Instrument flags,Ambient pressure (hPa),Sample flow (lpm),Bypass flow (lpm),Sample temperature (°C),Ambient temperature (°C),ASC tube jacket temperature (°C),LED temperature (°C),Box temperature (°C),Sample RH (%),Span deviation,Mass concentration (μg/m³),Mass concentration (μg/m³),Mass concentration (μg/m³)
DateTimeUTC,F1_M11,P_M11,Q1_M11,Q2_M11,T1_M11,T2_M11,T3_M11,T4_M11,T5_M11,U1_M11,ZSPAN_M11,X0_M11,X2_M11,X1_M11
2022-10-24 19:00:00,,0819.5,5.00,0.00,25.2,24.0,00.0,34.0,27.2,06.5,0000.0,0003.67,0001.23,0000.91
2022-10-24 19:01:00,,0819.5,5.00,0.00,25.2,23.9,00.0,34.1,27.1,06.7,0000.0,0003.73,0001.20,0000.90
2022-10-24 19:02:00,,0819.5,5.00,0.00,25.2,23.9,00.0,34.1,27.2,06.6,0000.0,0003.96,0001.19,0000.89
2022-10-24 19:03:00,,0819.5,5.00,0.00,25.2,24.0,00.0,34.1,27.2,06.5,0000.0,0003.91,0001.18,0000.89
2022-10-24 19:04:00,,0819.5,5.00,0.00,25.3,24.0,00.0,34.1,27.2,06.7,0000.0,0003.84,0001.14,0000.88
2022-10-24 19:05:00,,0819.5,5.01,0.00,25.3,24.0,00.0,34.1,27.2,06.7,0000.0,0003.75,0001.10,0000.87
2022-10-24 19:06:00,,0819.5,5.01,0.00,25.3,24.0,00.0,34.1,27.2,06.6,0000.0,0003.75,0001.08,0000.86
2022-10-24 19:07:00,,0819.4,4.99,0.00,25.3,24.0,00.0,34.1,27.2,06.8,0000.0,0002.67,0001.05,0000.85
2022-10-24 19:08:00,,0819.5,5.00,0.00,25.3,24.0,00.0,34.2,27.2,06.9,0000.0,0002.79,0001.05,0000.84
2022-10-24 19:09:00,,0819.3,5.00,0.00,25.3,24.0,00.0,34.2,27.2,06.8,0000.0,0002.50,0001.02,0000.82
2022-10-24 19:10:00,,0819.4,5.00,0.00,25.3,24.0,00.0,34.2,27.2,06.8,0000.0,0002.52,0001.01,0000.81
2022-10-24 19:11:00,,0819.4,5.01,0.00,25.3,24.0,00.0,34.2,27.2,06.5,0000.0,0002.61,0001.02,0000.80
2022-10-24 19:12:00,,0819.4,5.00,0.00,25.3,23.9,00.0,34.2,27.2,06.5,0000.0,0002.62,0001.02,0000.79
2022-10-24 19:13:00,,0819.4,5.01,0.00,25.3,23.9,00.0,34.2,27.2,06.5,0000.0,0002.38,0001.01,0000.78
2022-10-24 19:14:00,,0819.5,5.00,0.00,25.3,23.9,00.0,34.2,27.2,06.5,0000.0,0002.37,0000.99,0000.77
2022-10-24 19:15:00,,0819.5,5.00,0.00,25.3,24.0,00.0,34.2,27.2,06.4,0000.0,0002.36,0000.99,0000.76
2022-10-24 19:16:00,,0819.4,5.01,0.00,25.3,24.0,00.0,34.2,27.2,06.5,0000.0,0002.35,0000.98,0000.74
2022-10-24 19:17:00,,0819.4,5.01,0.00,25.3,24.0,00.0,34.2,27.2,06.4,0000.0,0002.59,0001.00,0000.73
2022-10-24 19:18:00,,0819.3,4.98,0.00,25.3,24.0,00.0,34.2,27.2,06.4,0000.0,0008.07,0001.55,0000.78
2022-10-24 19:19:00,,0819.4,5.00,0.00,25.3,24.0,00.0,34.2,27.3,06.5,0000.0,0010.09,0001.83,0000.80
2022-10-24 19:20:00,,0819.3,5.00,0.00,25.4,24.0,00.0,34.2,27.3,06.5,0000.0,0010.32,0001.92,0000.80
2022-10-24 19:21:00,,0819.3,5.00,0.00,25.4,24.0,00.0,34.2,27.3,06.4,0000.0,0010.40,0001.93,0000.81
2022-10-24 19:22:00,,0819.3,5.00,0.00,25.4,24.0,00.0,34.2,27.3,06.4,0000.0,0010.32,0001.91,0000.80
2022-10-24 19:23:00,,0819.4,5.00,0.00,25.4,24.0,00.0,34.2,27.3,06.6,0000.0,0010.31,0001.91,0000.81
2022-10-24 19:24:00,,0819.4,5.03,0.00,25.4,24.0,00.0,34.3,27.3,06.8,0000.0,0010.43,0001.98,0000.84
2022-10-24 19:25:00,,0819.4,5.00,0.00,25.4,24.1,00.0,34.3,27.3,06.9,0000.0,0010.47,0002.05,0000.89
2022-10-24 19:26:00,,0819.4,5.00,0.00,25.4,24.1,00.0,34.3,27.3,06.8,0000.0,0010.53,0002.11,0000.93
2022-10-24 19:27:00,,0819.4,5.00,0.00,25.4,24.2,00.0,34.3,27.4,07.0,0000.0,0010.54,0002.14,0000.98
2022-10-24 19:28:00,,0819.4,5.00,0.00,25.5,24.2,00.0,34.3,27.4,07.6,0000.0,0010.43,0002.20,0001.08
2022-10-24 19:29:00,,0819.3,5.00,0.00,25.5,24.3,00.0,34.3,27.4,07.5,0000.0,0006.17,0001.72,0001.13
2022-10-24 19:30:00,,0819.3,5.00,0.00,25.5,24.3,00.0,34.3,27.4,07.4,0000.0,0004.07,0001.53,0001.20
2022-10-24 19:31:00,,0819.5,4.98,0.00,25.5,24.3,00.0,34.3,27.5,07.2,0000.0,0005.55,0001.58,0001.28
2022-10-24 19:32:00,,0819.4,5.02,0.00,25.5,24.4,00.0,34.3,27.5,07.2,0000.0,0006.06,0001.67,0001.36
2022-10-24 19:33:00,,0819.2,5.00,0.00,25.6,24.4,00.0,34.3,27.5,07.3,0000.0,0006.38,0001.74,0001.44
2022-10-24 19:34:00,,0819.0,5.00,0.00,25.6,24.4,00.0,34.4,27.5,07.3,0000.0,0006.55,0001.85,0001.52
2022-10-24 19:35:00,,0819.2,5.00,0.00,25.6,24.4,00.0,34.4,27.6,07.3,0000.0,0006.47,0001.92,0001.57
2022-10-24 19:36:00,,0819.3,4.99,0.00,25.6,24.4,00.0,34.4,27.6,07.3,0000.0,0007.24,0001.98,0001.59
2022-10-24 19:37:00,,0819.4,4.98,0.00,25.6,24.4,00.0,34.4,27.6,07.6,0000.0,0007.65,0002.04,0001.65
2022-10-24 19:38:00,,0819.5,5.00,0.00,25.7,24.5,00.0,34.4,27.6,07.5,0000.0,0008.05,0002.12,0001.70
2022-10-24 19:39:00,,0819.4,5.00,0.00,25.7,24.5,00.0,34.4,27.6,07.2,0000.0,0008.45,0002.12,0001.70
2022-10-24 19:40:00,,0819.3,5.00,0.00,25.7,24.5,00.0,34.4,27.7,07.0,0000.0,0008.47,0002.06,0001.63
2022-10-24 19:41:00,,0819.3,5.00,0.00,25.7,24.5,00.0,34.5,27.7,07.0,0000.0,0008.10,0001.98,0001.54
2022-10-24 19:42:00,,0818.9,5.00,0.00,25.7,24.5,00.0,34.5,27.7,06.9,0000.0,0006.28,0001.85,0001.46
2022-10-24 19:43:00,,0818.9,5.00,0.00,25.7,24.5,00.0,34.5,27.7,07.0,0000.0,0007.56,0001.82,0001.40
2022-10-24 19:44:00,,0819.1,5.00,0.00,25.7,24.5,00.0,34.5,27.7,06.9,0000.0,0009.18,0001.87,0001.36
2022-10-24 19:45:00,,0819.1,5.00,0.00,25.8,24.5,00.0,34.5,27.7,07.0,0000.0,0010.31,0001.86,0001.31
2022-10-24 19:46:00,,0819.1,5.01,0.00,25.8,24.5,00.0,34.5,27.7,07.0,0000.0,0010.54,0001.78,0001.25
2022-10-24 19:47:00,,0819.1,5.00,0.00,25.8,24.5,00.0,34.6,27.7,07.0,0000.0,0010.00,0001.65,0001.19
2022-10-24 19:48:00,,0819.0,5.00,0.00,25.8,24.5,00.0,34.6,27.7,07.0,0000.0,0009.66,0001.54,0001.09
2022-10-24 19:49:00,,0819.0,5.00,0.00,25.8,24.5,00.0,34.6,27.7,06.9,0000.0,0009.30,0001.44,0001.01
2022-10-24 19:50:00,,0819.0,5.00,0.00,25.8,24.4,00.0,34.6,27.7,06.8,0000.0,0008.82,0001.33,0000.93
2022-10-24 19:51:00,,0819.0,5.00,0.00,25.8,24.4,00.0,34.6,27.7,06.8,0000.0,0008.71,0001.27,0000.89
2022-10-24 19:52:00,,0819.0,4.99,0.00,25.8,24.4,00.0,34.6,27.7,06.7,0000.0,0008.78,0001.28,0000.87
2022-10-24 19:53:00,,0819.0,4.99,0.00,25.8,24.3,00.0,34.6,27.6,06.7,0000.0,0008.84,0001.32,0000.86
2022-10-24 19:54:00,,0819.0,5.00,0.00,25.8,24.3,00.0,34.6,27.7,06.6,0000.0,0007.10,0001.24,0000.84
2022-10-24 19:55:00,,0819.0,5.00,0.00,25.8,24.3,00.0,34.6,27.7,06.7,0000.0,0004.50,0001.10,0000.80
2022-10-24 19:56:00,,0819.0,5.01,0.00,25.8,24.3,00.0,34.6,27.6,06.7,0000.0,0002.64,0000.98,0000.76
2022-10-24 19:57:00,,0819.1,5.01,0.00,25.8,24.2,00.0,34.6,27.6,06.6,0000.0,0002.72,0000.92,0000.74
2022-10-24 19:58:00,,0819.0,4.99,0.00,25.8,24.3,00.0,34.6,27.6,06.7,0000.0,0002.71,0000.91,0000.73
2022-10-24 19:59:00,,0819.1,4.99,0.00,25.8,24.2,00.0,34.6,27.6,06.7,0000.0,0002.72,0000.90,0000.72
